This demonstration page uses our WeatherBlox Daily Observations layout. Learn more.

Left ArrowRight Arrow

Hourly Observations for July 18, 2021

Temp ( °F °C ) Dew Point ( °F °C ) Humidity (%) Winds ( mph kmh ) Pressure ( in mb ) Visibility ( mi km ) Precip ( " mm )
12:15 am 00:15 Partly Cloudy 72 22.3 69 20.7 91 91 SE 8 13 30.07 1018 10 16 N/A
12:35 am 00:35 Mostly Cloudy 72 22.2 69 20.6 91 91 SE 8 13 30.07 1018 10 16 N/A
12:55 am 00:55 Mostly Cloudy 72 22.1 69 20.6 91 91 ESE 8 13 30.07 1018 10 16 N/A
1:15 am 01:15 Mostly Cloudy 72 22 69 20.5 91 91 ESE 6 9 30.07 1018 10 16 N/A
1:35 am 01:35 Mostly Cloudy 71 21.8 69 20.5 92 92 SE 8 13 30.08 1018 10 16 N/A
1:55 am 01:55 Mostly Cloudy 71 21.5 69 20.4 93 93 SE 6 9 30.08 1019 10 16 N/A
2:15 am 02:15 Cloudy 70 21.3 69 20.3 94 94 ESE 5 7 30.09 1019 10 16 N/A
2:35 am 02:35 Partly Cloudy 70 21.3 68 20.2 93 93 SE 7 11 30.08 1019 10 16 N/A
2:55 am 02:55 Partly Cloudy 70 21.1 68 20.1 94 94 SE 8 13 30.08 1019 7 11 N/A
3:15 am 03:15 Partly Cloudy 70 21 68 20.1 95 95 SSE 6 9 30.08 1019 7 11 N/A
3:35 am 03:35 Mostly Cloudy 69 20.8 68 20 95 95 ESE 3 6 30.08 1019 7 11 N/A
3:55 am 03:55 Cloudy 69 20.7 68 20 96 96 ESE 7 11 30.08 1018 7 11 N/A
4:15 am 04:15 Cloudy with Mist and Fog 69 20.5 68 19.8 96 96 SE 7 11 30.09 1019 5 8 N/A
4:35 am 04:35 Partly Cloudy with Mist and Fog 69 20.3 67 19.6 96 96 SE 7 11 30.08 1019 5 8 N/A
4:55 am 04:55 Partly Cloudy with Nearby Thunderstorms 69 20.3 67 19.6 96 96 SE 8 13 30.07 1018 5 8 N/A
5:15 am 05:15 Cloudy with Mist and Fog 68 20.2 67 19.5 96 96 SE 8 13 30.07 1018 5 8 N/A
5:35 am 05:35 Cloudy with Nearby Thunderstorms 69 20.3 67 19.6 96 96 N N/A 30.09 1019 5 8 N/A
5:55 am 05:55 Cloudy with Nearby Thunderstorms 69 20.3 67 19.6 96 96 E 7 11 30.09 1019 5 8 N/A
6:15 am 06:15 Cloudy with Thunderstorms 68 20.2 67 19.6 96 96 N N/A 30.10 1019 5 8 N/A
6:35 am 06:35 Cloudy 69 20.3 68 19.8 97 97 NW 7 11 30.11 1020 3 5 N/A
6:55 am 06:55 Cloudy with Thunderstorms 68 20.2 68 19.8 98 98 NE 3 6 30.12 1020 3 5 N/A
7:15 am 07:15 Cloudy with Nearby Thunderstorms 69 20.3 68 20 98 98 ENE 5 7 30.11 1020 3 5 0.01 0.25
7:35 am 07:35 Cloudy with Light Rain 69 20.5 68 20 97 97 ESE 18 30 30.08 1019 4 6 0.05 1.27
7:55 am 07:55 Cloudy 68 20.1 67 19.2 95 95 ENE 6 9 30.14 1021 7 11 0.05 1.27
8:15 am 08:15 Cloudy 68 20.2 66 19.1 93 93 ESE 8 13 30.15 1021 10 16 N/A
8:35 am 08:35 Cloudy 69 20.5 67 19.5 94 94 ESE 6 9 30.14 1021 10 16 N/A
8:55 am 08:55 Partly Cloudy 69 20.8 67 19.4 92 92 N N/A 30.14 1021 10 16 N/A
9:15 am 09:15 Partly Cloudy 70 21.2 67 19.4 90 90 SE 6 9 30.11 1020 10 16 N/A
9:35 am 09:35 Sunny 72 22.4 68 19.9 86 86 SE 9 15 30.07 1018 10 16 N/A
9:55 am 09:55 Sunny 73 23 68 19.9 83 83 SW 9 15 30.07 1018 10 16 N/A
10:15 am 10:15 Sunny 75 23.7 66 19.1 76 76 SSE 6 9 30.05 1018 10 16 N/A
10:35 am 10:35 Sunny 77 25.2 66 18.8 68 68 SSE 12 19 30.05 1018 10 16 N/A
10:55 am 10:55 Sunny 77 25.1 64 17.8 64 64 SE 10 17 30.07 1018 10 16 N/A
11:15 am 11:15 Sunny 77 25.2 63 17 60 60 ESE 10 17 30.07 1018 10 16 N/A
11:35 am 11:35 Sunny 79 26.2 64 17.7 60 60 SE 9 15 30.06 1018 10 16 N/A
11:55 am 11:55 Sunny 79 26.2 64 18 61 61 SE 9 15 30.06 1018 10 16 N/A
12:15 pm 12:15 Sunny 79 26.3 67 19.4 66 66 SE 10 17 30.07 1018 10 16 N/A
12:35 pm 12:35 Sunny 78 25.6 66 18.9 67 67 SE 9 15 30.08 1019 10 16 N/A
12:55 pm 12:55 Sunny 78 25.4 66 19.1 68 68 E 8 13 30.09 1019 10 16 N/A
1:15 pm 13:15 Partly Cloudy 78 25.7 67 19.3 68 68 SSE 14 22 30.08 1019 10 16 N/A
1:35 pm 13:35 Partly Cloudy 79 25.9 66 18.7 65 65 SE 10 17 30.08 1019 10 16 N/A
1:55 pm 13:55 Sunny 79 25.9 67 19.4 67 67 SSE 7 11 30.07 1018 10 16 N/A
2:15 pm 14:15 Sunny 80 26.8 67 19.4 64 64 S 10 17 30.06 1018 10 16 N/A
2:35 pm 14:35 Partly Cloudy 80 26.9 67 19.4 64 64 SSE 10 17 30.06 1018 10 16 N/A
2:55 pm 14:55 Partly Cloudy 80 26.9 66 18.7 61 61 SSE 14 22 30.06 1018 10 16 N/A
3:15 pm 15:15 Partly Cloudy 81 27.4 66 19 60 60 SE 9 15 30.05 1018 10 16 N/A
3:35 pm 15:35 Partly Cloudy 81 27.1 65 18.3 59 59 SSE 12 19 30.05 1018 10 16 N/A
3:55 pm 15:55 Sunny 81 27.3 66 18.7 59 59 SE 8 13 30.05 1018 10 16 N/A
4:15 pm 16:15 Sunny 80 26.8 65 18.6 61 61 SSE 7 11 30.04 1017 10 16 N/A
4:35 pm 16:35 Sunny 81 27 67 19.5 64 64 SE 8 13 30.05 1018 10 16 N/A
4:55 pm 16:55 Partly Cloudy 80 26.8 67 19.2 63 63 SSE 9 15 30.05 1018 10 16 N/A
5:15 pm 17:15 Sunny 80 26.7 66 18.8 62 62 SE 8 13 30.04 1017 10 16 N/A
5:35 pm 17:35 Sunny 80 26.7 67 19.2 64 64 SE 9 15 30.04 1017 10 16 N/A
5:55 pm 17:55 Sunny 80 26.6 66 19 63 63 SSE 9 15 30.05 1017 10 16 N/A
6:15 pm 18:15 Sunny 80 26.5 67 19.4 65 65 SE 6 9 30.05 1017 10 16 N/A
6:35 pm 18:35 Sunny 80 26.5 65 18.5 62 62 ESE 7 11 30.05 1017 10 16 N/A
6:55 pm 18:55 Sunny 79 26.2 66 19.1 65 65 ESE 7 11 30.04 1017 10 16 N/A
7:15 pm 19:15 Sunny 79 25.9 66 19.1 66 66 SE 7 11 30.04 1017 10 16 N/A
7:35 pm 19:35 Sunny 78 25.6 67 19.3 68 68 SE 9 15 30.04 1017 10 16 N/A
7:55 pm 19:55 Sunny 77 25 68 20 74 74 SE 9 15 30.05 1018 10 16 N/A
8:15 pm 20:15 Sunny 76 24.7 67 19.6 73 73 ESE 6 9 30.05 1018 7 11 N/A
8:35 pm 20:35 Sunny 76 24.3 67 19.2 73 73 SE 7 11 30.06 1018 10 16 N/A
8:55 pm 20:55 Sunny 74 23.6 67 19.6 78 78 SE 6 9 30.07 1018 10 16 N/A
9:15 pm 21:15 Clear 74 23.3 67 19.5 79 79 SE 6 9 30.08 1019 10 16 N/A
9:35 pm 21:35 Clear 73 22.7 67 19.6 83 83 SE 5 7 30.09 1019 10 16 N/A
9:55 pm 21:55 Clear 73 22.7 67 19.7 83 83 SE 6 9 30.10 1019 10 16 N/A
10:15 pm 22:15 Clear 72 22.1 68 19.8 87 87 SE 6 9 30.11 1020 10 16 N/A
10:35 pm 22:35 Clear 72 22 68 20 88 88 ESE 7 11 30.11 1020 10 16 N/A
10:55 pm 22:55 Clear 71 21.8 68 20.1 90 90 SE 6 9 30.13 1020 10 16 N/A
11:15 pm 23:15 Clear 71 21.6 68 20 91 91 SE 6 9 30.14 1021 10 16 N/A
11:35 pm 23:35 Clear 70 21.3 68 20 92 92 SE 6 9 30.14 1021 10 16 N/A
11:55 pm 23:55 Clear 70 21.2 68 20 93 93 SE 6 9 30.14 1021 10 16 N/A

Powered by AerisWeather